Wind_Speed
10 11 11 11 11 11 12 12 12 12 12 12 12 12 12 11 8 3 6 7 11 11 12 10 9 9 9 8 9 9 9 8 7
11 11 11 11 11 12 12 12 12 12 12 11 11 10 9 7 3 4 10 9 12 15 14 12 10 10 10 9 10 10 10 9 9
11 11 11 11 11 11 11 11 12 12 12 11 11 9 8 3 4 6 11 13 15 17 17 10 10 11 11 10 11 11 10 11 10
11 11 11 11 11 11 11 11 11 11 12 12 12 10 8 5 8 7 8 13 14 15 12 10 11 10 9 9 10 11 11 11 11
11 12 11 11 10 10 10 10 10 10 10 10 9 8 6 5 6 7 12 14 13 13 12 11 12 12 13 13 11 10 10 10 10
13 12 12 12 12 11 9 9 9 8 8 6 6 4 5 6 6 11 14 14 13 13 12 12 12 12 13 13 13 13 13 12 11
11 13 13 12 12 13 12 10 9 9 8 8 6 6 7 3 7 10 12 11 11 11 13 14 14 14 14 13 13 13 13 13 13
10 10 11 11 11 11 11 9 9 9 9 8 6 6 6 3 8 11 11 10 7 9 10 13 13 13 14 14 15 16 16 17 17
10 10 11 11 10 10 10 10 9 8 8 8 8 6 4 3 10 10 9 8 9 9 8 8 8 9 9 11 11 14 14 15 17
10 11 11 11 11 10 10 9 9 8 7 7 7 6 6 4 9 11 10 8 8 8 7 7 7 5 2 3 4 6 10 12 13
12 11 12 12 12 12 11 10 10 9 9 9 7 6 2 8 7 12 10 6 6 7 7 8 8 7 2 2 4 6 9 9 10
12 12 13 13 13 12 12 11 11 11 10 10 8 8 7 6 9 8 11 10 7 7 7 7 8 8 9 11 11 12 12 9 7
11 12 13 13 13 12 12 12 11 11 12 12 9 9 8 9 9 10 8 11 12 8 7 8 9 10 10 11 11 12 11 9 7
11 11 12 12 13 12 12 12 13 12 11 13 11 11 10 10 10 10 11 10 9 12 11 11 12 11 11 13 13 14 14 12 10
12 12 13 12 12 13 13 13 13 14 14 14 12 13 11 10 8 8 10 11 12 13 13 13 12 12 13 15 15 16 16 15 14
13 14 14 14 13 13 13 14 14 14 14 16 15 8 8 9 8 10 13 13 16 16 13 12 13 15 16 16 15 15 15 14 14
14 15 15 15 15 14 14 15 16 15 16 16 12 8 5 7 10 17 13 16 16 15 16 15 15 17 15 17 16 15 15 14 14
15 14 15 16 16 15 15 15 15 17 14 14 10 5 3 16 6 9 14 14 18 19 19 21 21 19 18 16 18 16 15 15 15
14 13 14 15 15 15 16 16 16 17 16 14 12 12 13 8 11 7 10 19 18 19 24 21 22 22 19 19 18 16 17 17 16
11 12 13 14 14 14 14 15 16 17 18 17 17 17 16 16 17 27 23 22 21 22 25 28 25 25 24 21 19 18 17 18 18
Wind_Direction
332 330 326 323 319 314 311 307 305 302 297 293 290 285 280 278 270 198 299 296 292 280 289 286 283 288 281 281 276 285 295 302 314
336 333 328 325 323 320 318 317 315 312 309 307 304 302 297 288 269 231 239 261 261 271 282 285 283 280 281 274 273 276 281 287 292
343 342 337 333 329 325 322 319 317 312 310 310 308 307 305 299 214 232 247 244 262 269 272 276 282 282 280 277 274 276 278 279 280
351 351 344 340 338 335 330 325 320 316 315 312 310 309 307 293 256 255 250 259 263 272 275 262 263 278 283 279 276 276 276 277 277
1 349 344 343 341 340 338 334 330 327 321 319 319 318 312 283 280 263 256 264 270 270 272 273 268 269 269 272 274 279 280 281 280
344 344 346 345 343 341 346 345 344 340 328 329 331 321 274 276 265 258 266 274 273 267 268 272 273 271 271 272 273 272 271 271 273
354 351 351 351 347 340 347 345 345 345 343 333 335 319 307 296 293 278 282 287 281 274 269 267 269 273 278 278 278 276 275 271 268
352 344 346 348 347 346 344 343 339 342 344 334 328 316 322 297 267 283 294 287 274 269 271 275 281 282 281 279 274 269 268 269 269
351 353 351 348 349 350 348 344 342 338 337 331 332 318 314 327 289 288 296 291 273 274 283 284 280 276 280 280 275 273 271 268 267
356 356 354 351 350 351 350 349 345 341 342 341 333 326 313 271 268 283 293 290 280 272 272 284 289 296 345 333 328 297 281 275 273
360 358 354 354 352 351 349 350 349 346 343 338 333 321 321 305 269 282 298 303 294 294 294 293 284 277 275 288 300 308 291 295 294
357 355 356 354 353 354 354 354 352 346 343 341 328 319 300 261 289 284 295 299 296 295 295 297 299 299 298 293 296 298 303 299 290
350 352 353 352 352 352 353 353 356 352 350 346 335 325 310 302 287 288 275 295 305 308 307 306 304 300 294 291 292 295 297 296 283
337 341 343 346 346 347 349 350 349 350 350 347 336 328 315 276 277 284 295 298 294 301 300 296 297 295 295 295 295 295 295 294 287
323 326 331 334 336 340 340 339 340 340 342 342 335 329 327 318 299 293 299 301 302 300 301 305 305 302 302 300 300 296 293 291 287
312 315 318 320 323 327 329 333 334 334 333 335 337 352 337 327 320 329 311 309 308 311 310 308 304 305 307 303 298 295 292 288 282
306 308 310 309 309 313 317 324 328 333 333 337 343 342 332 288 317 310 309 306 301 306 307 308 309 309 307 305 302 300 296 292 286
302 304 306 306 304 305 308 314 321 324 331 326 331 327 299 301 284 303 291 307 314 311 312 310 306 307 308 304 303 301 294 292 288
298 303 307 308 305 303 304 308 314 315 318 317 313 305 296 303 303 289 281 299 301 304 306 306 307 305 304 304 301 300 297 293 290
303 304 309 312 311 308 304 304 305 309 310 309 306 301 299 291 281 294 304 297 291 298 299 302 304 306 301 300 296 297 295 291 289
Height
1540 1539 1538 1537 1536 1535 1534 1533 1533 1532 1532 1532 1532 1532 1533 1533 1534 1535 1536 1535 1534 1533 1533 1533 1533 1533 1533 1533 1534 1533 1533 1533 1533
1540 1539 1537 1536 1534 1533 1533 1532 1531 1531 1530 1530 1530 1529 1530 1530 1531 1533 1532 1533 1532 1531 1532 1531 1531 1531 1531 1531 1531 1531 1531 1531 1531
1539 1538 1537 1535 1534 1533 1531 1530 1529 1529 1528 1527 1527 1527 1528 1528 1528 1529 1529 1529 1529 1529 1529 1529 1528 1529 1529 1529 1529 1529 1529 1529 1530
1539 1538 1536 1535 1533 1532 1531 1529 1528 1527 1527 1526 1525 1525 1526 1526 1526 1526 1525 1526 1526 1526 1525 1525 1526 1526 1526 1526 1526 1526 1527 1527 1527
1538 1537 1536 1534 1533 1531 1530 1529 1528 1526 1525 1524 1524 1523 1523 1523 1523 1522 1523 1523 1523 1523 1523 1522 1522 1523 1523 1524 1524 1524 1524 1525 1525
1537 1536 1534 1533 1532 1530 1529 1528 1527 1526 1525 1523 1523 1522 1521 1521 1521 1520 1520 1520 1520 1520 1520 1520 1519 1520 1520 1521 1521 1521 1521 1522 1522
1537 1535 1534 1532 1531 1530 1528 1526 1525 1525 1524 1523 1521 1521 1520 1520 1519 1518 1518 1518 1517 1517 1517 1516 1516 1516 1517 1517 1518 1518 1518 1519 1519
1537 1535 1533 1531 1530 1528 1527 1526 1524 1523 1522 1522 1521 1520 1519 1519 1517 1516 1516 1515 1514 1514 1514 1514 1514 1514 1514 1514 1514 1514 1514 1514 1514
1536 1534 1533 1531 1530 1528 1526 1525 1523 1522 1520 1520 1519 1519 1518 1518 1515 1514 1514 1513 1512 1512 1512 1511 1511 1511 1511 1510 1510 1510 1510 1510 1510
1536 1534 1532 1531 1529 1527 1525 1524 1522 1521 1519 1518 1517 1517 1517 1516 1514 1513 1512 1511 1511 1510 1510 1509 1509 1509 1509 1509 1508 1507 1507 1506 1506
1535 1533 1532 1530 1528 1527 1525 1523 1521 1520 1518 1517 1515 1515 1515 1514 1514 1511 1510 1509 1509 1509 1508 1508 1507 1507 1507 1507 1506 1505 1504 1504 1503
1534 1533 1531 1529 1528 1526 1524 1523 1521 1519 1517 1516 1514 1513 1513 1513 1511 1510 1508 1507 1507 1507 1506 1506 1505 1505 1505 1504 1503 1502 1502 1502 1501
1534 1533 1531 1529 1527 1526 1524 1522 1519 1518 1516 1515 1513 1512 1511 1510 1509 1509 1508 1506 1505 1506 1505 1504 1504 1503 1502 1502 1501 1500 1499 1499 1499
1533 1532 1530 1529 1527 1525 1523 1521 1518 1516 1515 1514 1512 1510 1509 1508 1507 1506 1506 1505 1505 1503 1503 1502 1501 1500 1500 1499 1498 1498 1497 1496 1496
1531 1530 1529 1528 1527 1525 1523 1521 1518 1515 1513 1512 1510 1507 1506 1505 1505 1504 1504 1503 1503 1502 1501 1500 1499 1499 1498 1497 1496 1495 1494 1494 1493
1529 1528 1527 1526 1525 1523 1522 1520 1517 1515 1512 1509 1507 1505 1504 1504 1503 1503 1502 1501 1499 1499 1498 1498 1497 1495 1494 1493 1493 1491 1490 1490 1489
1527 1526 1525 1523 1522 1521 1519 1518 1516 1514 1512 1509 1505 1503 1503 1503 1502 1501 1500 1500 1498 1497 1495 1494 1494 1493 1491 1490 1489 1488 1487 1486 1486
1524 1523 1522 1521 1519 1518 1517 1516 1514 1512 1512 1509 1509 1504 1503 1500 1499 1499 1499 1498 1496 1494 1492 1491 1490 1489 1488 1487 1485 1485 1484 1483 1482
1521 1520 1519 1518 1516 1515 1514 1513 1512 1511 1509 1509 1507 1505 1503 1500 1496 1495 1494 1494 1493 1491 1490 1488 1486 1485 1484 1483 1482 1481 1480 1479 1478
1518 1518 1516 1515 1514 1512 1511 1511 1510 1508 1507 1506 1505 1502 1500 1499 1496 1489 1488 1490 1490 1487 1485 1483 1482 1481 1479 1479 1478 1477 1476 1475 1475